When you browse on this site, cookies collect data to enhance your experience and personalize the content and advertising you see.
Visit our Privacy Policy to learn more. By continuing to use the site, you agree to this use of cookies and data.
  • In Germany
  • List of Countries
  • For 7 days
  • Water Temperature
  • Weather Map
  • Weather Widgets
  • user-avatar
    Login

    Hourly Weather Kiskunfelegyhaza

    Today, 23 February, Sunday

    Time Temperature Precipitation Wind Pressure Humidity
    00:00 +3°C° 0 mm 5 mps 761 mmHg 63%
    01:00 +3°C° 0 mm 5 mps 760 mmHg 64%
    02:00 +3°C° 0 mm 5 mps 760 mmHg 63%
    03:00 +2°C° 0 mm 5 mps 759 mmHg 63%
    04:00 +3°C° 0 mm 4 mps 759 mmHg 63%
    05:00 +4°C° 0 mm 4 mps 759 mmHg 64%
    06:00 +4°C° 0 mm 4 mps 759 mmHg 65%
    07:00 +5°C° 0 mm 2 mps 759 mmHg 66%
    08:00 +5°C° 0.1 mm 3 mps 759 mmHg 66%
    09:00 +7°C° 0.1 mm 3 mps 759 mmHg 67%
    10:00 +9°C° 0.1 mm 3 mps 758 mmHg 67%
    11:00 +10°C° 0 mm 3 mps 758 mmHg 64%
    12:00 +11°C° 0 mm 3 mps 758 mmHg 62%
    13:00 +13°C° 0 mm 3 mps 757 mmHg 60%
    14:00 +13°C° 0 mm 4 mps 756 mmHg 60%
    15:00 +12°C° 0 mm 5 mps 755 mmHg 60%
    16:00 +12°C° 0 mm 5 mps 754 mmHg 60%
    17:00 +11°C° 0 mm 6 mps 753 mmHg 59%
    18:00 +10°C° 0 mm 6 mps 753 mmHg 58%
    19:00 +10°C° 0 mm 6 mps 753 mmHg 56%
    20:00 +10°C° 0 mm 6 mps 752 mmHg 57%
    21:00 +10°C° 0 mm 6 mps 751 mmHg 59%
    22:00 +10°C° 0 mm 6 mps 750 mmHg 60%
    23:00 +10°C° 0.1 mm 6 mps 750 mmHg 61%

    Tomorrow, 24 February, Monday

    Time Temperature Precipitation Wind Pressure Humidity
    00:00 +10°C° 0.1 mm 7 mps 750 mmHg 63%
    01:00 +10°C° 0.1 mm 7 mps 750 mmHg 64%
    02:00 +9°C° 0.5 mm 8 mps 750 mmHg 66%
    03:00 +8°C° 0.5 mm 9 mps 751 mmHg 68%
    04:00 +8°C° 0.5 mm 10 mps 751 mmHg 70%
    05:00 +7°C° 0 mm 10 mps 752 mmHg 62%
    06:00 +6°C° 0 mm 10 mps 754 mmHg 54%
    07:00 +5°C° 0 mm 10 mps 755 mmHg 47%
    08:00 +5°C° 0 mm 10 mps 756 mmHg 46%
    09:00 +6°C° 0 mm 9 mps 757 mmHg 45%
    10:00 +6°C° 0 mm 8 mps 758 mmHg 45%
    11:00 +7°C° 0 mm 8 mps 758 mmHg 44%
    12:00 +8°C° 0 mm 7 mps 758 mmHg 43%
    13:00 +9°C° 0 mm 7 mps 758 mmHg 42%
    14:00 +9°C° 0 mm 6 mps 758 mmHg 43%
    15:00 +9°C° 0 mm 6 mps 757 mmHg 43%
    16:00 +8°C° 0 mm 6 mps 757 mmHg 43%
    17:00 +7°C° 0 mm 4 mps 757 mmHg 47%
    18:00 +7°C° 0 mm 3 mps 757 mmHg 51%
    19:00 +6°C° 0 mm 2 mps 756 mmHg 55%
    20:00 +6°C° 0 mm 2 mps 756 mmHg 58%
    21:00 +5°C° 0 mm 3 mps 756 mmHg 60%
    22:00 +4°C° 0 mm 3 mps 755 mmHg 62%
    23:00 +4°C° 0 mm 3 mps 755 mmHg 62%

    Day after tomorrow, 25 February, Tuesday

    Time Temperature Precipitation Wind Pressure Humidity
    00:00 +4°C° 0 mm 3 mps 755 mmHg 62%
    01:00 +4°C° 0 mm 3 mps 754 mmHg 62%
    02:00 +4°C° 0 mm 3 mps 754 mmHg 62%
    03:00 +3°C° 0 mm 4 mps 753 mmHg 62%
    04:00 +3°C° 0 mm 4 mps 752 mmHg 62%
    05:00 +3°C° 0 mm 4 mps 752 mmHg 63%
    06:00 +3°C° 0 mm 4 mps 751 mmHg 64%
    07:00 +3°C° 0 mm 4 mps 751 mmHg 65%
    08:00 +4°C° 0 mm 4 mps 750 mmHg 61%
    09:00 +6°C° 0 mm 4 mps 750 mmHg 57%
    10:00 +8°C° 0 mm 4 mps 749 mmHg 54%
    11:00 +10°C° 0 mm 5 mps 749 mmHg 54%
    12:00 +13°C° 0 mm 5 mps 748 mmHg 54%
    13:00 +14°C° 0 mm 5 mps 748 mmHg 54%
    14:00 +14°C° 0 mm 5 mps 747 mmHg 56%
    15:00 +14°C° 0 mm 4 mps 746 mmHg 58%
    16:00 +14°C° 0 mm 4 mps 746 mmHg 60%
    17:00 +13°C° 0 mm 4 mps 745 mmHg 62%
    18:00 +12°C° 0 mm 4 mps 745 mmHg 64%
    19:00 +12°C° 0 mm 4 mps 745 mmHg 66%
    20:00 +11°C° 0.1 mm 4 mps 745 mmHg 67%
    21:00 +10°C° 0.1 mm 5 mps 744 mmHg 69%
    22:00 +10°C° 0.1 mm 5 mps 744 mmHg 70%
    23:00 +10°C° 0.2 mm 5 mps 743 mmHg 71%

    26 February, Wednesday

    Time Temperature Precipitation Wind Pressure Humidity
    00:00 +10°C° 0.2 mm 6 mps 743 mmHg 73%
    01:00 +10°C° 0.2 mm 6 mps 742 mmHg 74%
    02:00 +9°C° 1.4 mm 5 mps 742 mmHg 80%
    03:00 +8°C° 1.4 mm 5 mps 741 mmHg 85%
    04:00 +8°C° 1.4 mm 4 mps 741 mmHg 90%
    05:00 +8°C° 1.2 mm 3 mps 741 mmHg 90%
    06:00 +8°C° 1.2 mm 3 mps 741 mmHg 91%
    07:00 +8°C° 1.2 mm 2 mps 741 mmHg 92%
    08:00 +8°C° 0.4 mm 2 mps 741 mmHg 84%
    09:00 +9°C° 0.4 mm 3 mps 740 mmHg 76%
    10:00 +10°C° 0.4 mm 3 mps 740 mmHg 68%
    11:00 +10°C° 0 mm 2 mps 740 mmHg 65%
    12:00 +10°C° 0 mm 2 mps 740 mmHg 62%
    13:00 +10°C° 0 mm 2 mps 739 mmHg 59%
    14:00 +10°C° 0.3 mm 2 mps 739 mmHg 62%
    15:00 +9°C° 0.3 mm 2 mps 738 mmHg 64%
    16:00 +10°C° 0.3 mm 1 mps 738 mmHg 66%
    17:00 +8°C° 0.2 mm 3 mps 738 mmHg 70%
    18:00 +6°C° 0.2 mm 4 mps 738 mmHg 73%
    19:00 +6°C° 0.2 mm 5 mps 739 mmHg 76%
    20:00 +6°C° 0.3 mm 5 mps 739 mmHg 73%
    21:00 +5°C° 0.3 mm 4 mps 739 mmHg 70%
    22:00 +5°C° 0.3 mm 4 mps 739 mmHg 66%
    23:00 +5°C° 0 mm 5 mps 740 mmHg 64%

    27 February, Thursday

    Time Temperature Precipitation Wind Pressure Humidity
    00:00 +3°C° 0 mm 6 mps 740 mmHg 61%
    01:00 +3°C° 0 mm 7 mps 740 mmHg 59%
    02:00 +2°C° 0 mm 7 mps 740 mmHg 62%
    03:00 +2°C° 0 mm 7 mps 741 mmHg 64%
    04:00 +1°C° 0 mm 8 mps 741 mmHg 67%
    05:00 0°C° 0.1 mm 7 mps 742 mmHg 66%
    06:00 +1°C° 0.1 mm 6 mps 742 mmHg 66%
    07:00 +1°C° 0.1 mm 6 mps 743 mmHg 65%
    08:00 +2°C° 0 mm 7 mps 744 mmHg 62%
    09:00 +2°C° 0 mm 8 mps 745 mmHg 59%
    10:00 +2°C° 0 mm 9 mps 745 mmHg 56%
    11:00 +3°C° 0 mm 9 mps 746 mmHg 54%
    12:00 +5°C° 0 mm 9 mps 746 mmHg 52%
    13:00 +6°C° 0 mm 10 mps 746 mmHg 50%
    14:00 +6°C° 0 mm 9 mps 747 mmHg 49%
    15:00 +5°C° 0 mm 8 mps 747 mmHg 49%
    16:00 +5°C° 0 mm 7 mps 747 mmHg 48%
    17:00 +4°C° 0 mm 6 mps 748 mmHg 52%
    18:00 +3°C° 0 mm 5 mps 748 mmHg 56%
    19:00 +3°C° 0 mm 4 mps 749 mmHg 60%
    20:00 +3°C° 0 mm 4 mps 749 mmHg 63%
    21:00 +1°C° 0 mm 4 mps 749 mmHg 65%
    22:00 +1°C° 0 mm 4 mps 749 mmHg 68%
    23:00 +1°C° 0 mm 3 mps 749 mmHg 68%

    28 February, Friday

    Time Temperature Precipitation Wind Pressure Humidity
    00:00 +1°C° 0 mm 3 mps 749 mmHg 68%
    01:00 +1°C° 0 mm 3 mps 748 mmHg 68%
    02:00 0°C° 0 mm 4 mps 748 mmHg 68%
    03:00 0°C° 0 mm 5 mps 747 mmHg 67%
    04:00 0°C° 0 mm 5 mps 746 mmHg 66%
    05:00 +1°C° 0 mm 6 mps 746 mmHg 64%
    06:00 +1°C° 0 mm 6 mps 746 mmHg 62%
    07:00 0°C° 0 mm 7 mps 746 mmHg 60%
    08:00 +3°C° 0 mm 7 mps 746 mmHg 59%
    09:00 +5°C° 0 mm 8 mps 746 mmHg 58%
    10:00 +6°C° 0 mm 8 mps 746 mmHg 57%
    11:00 +7°C° 0 mm 8 mps 746 mmHg 56%
    12:00 +9°C° 0 mm 8 mps 746 mmHg 54%
    13:00 +10°C° 0 mm 8 mps 746 mmHg 53%
    14:00 +11°C° 0 mm 7 mps 746 mmHg 55%
    15:00 +11°C° 0 mm 6 mps 746 mmHg 57%
    16:00 +12°C° 0 mm 5 mps 746 mmHg 59%
    17:00 +10°C° 0 mm 5 mps 746 mmHg 62%
    18:00 +10°C° 0 mm 4 mps 747 mmHg 66%
    19:00 +9°C° 0 mm 3 mps 747 mmHg 70%
    20:00 +9°C° 0 mm 3 mps 747 mmHg 72%
    21:00 +9°C° 0 mm 3 mps 748 mmHg 73%
    22:00 +9°C° 0 mm 3 mps 748 mmHg 74%
    23:00 +8°C° 0 mm 4 mps 748 mmHg 72%
    Show more